EN

Hourly Weather Altleiningen

Today, 20 January, Wednesday

Time Temperature Precipitation Wind Pressure Humidity
00:00 -1°C° 0 mm 4 mps 726 mmHg 77%
01:00 -1°C° 0 mm 4 mps 726 mmHg 78%
02:00 -1°C° 0 mm 4 mps 726 mmHg 78%
03:00 -1°C° 0 mm 4 mps 725 mmHg 77%
04:00 -1°C° 0 mm 4 mps 725 mmHg 77%
05:00 -1°C° 0 mm 4 mps 724 mmHg 77%
06:00 -1°C° 0 mm 4 mps 724 mmHg 77%
07:00 -1°C° 0 mm 4 mps 724 mmHg 77%
08:00 0°C° 0 mm 4 mps 724 mmHg 77%
09:00 0°C° 0 mm 4 mps 724 mmHg 77%
10:00 +1°C° 0 mm 4 mps 724 mmHg 77%
11:00 +2°C° 0 mm 5 mps 723 mmHg 76%
12:00 +3°C° 0 mm 5 mps 723 mmHg 74%
13:00 +5°C° 0 mm 5 mps 723 mmHg 73%
14:00 +4°C° 0 mm 4 mps 722 mmHg 74%
15:00 +4°C° 0 mm 3 mps 721 mmHg 76%
16:00 +4°C° 0 mm 3 mps 721 mmHg 77%
17:00 +3°C° 0 mm 3 mps 721 mmHg 78%
18:00 +3°C° 0 mm 3 mps 720 mmHg 80%
19:00 +2°C° 0 mm 3 mps 720 mmHg 81%
20:00 +2°C° 0 mm 3 mps 720 mmHg 81%
21:00 +1°C° 0 mm 4 mps 720 mmHg 80%
22:00 +1°C° 0 mm 4 mps 720 mmHg 80%
23:00 +1°C° 0 mm 4 mps 719 mmHg 78%

Tomorrow, 21 January, Thursday

Time Temperature Precipitation Wind Pressure Humidity
00:00 +1°C° 0 mm 4 mps 719 mmHg 77%
01:00 +1°C° 0 mm 4 mps 718 mmHg 75%
02:00 +1°C° 0 mm 4 mps 718 mmHg 73%
03:00 +1°C° 0 mm 4 mps 717 mmHg 72%
04:00 +1°C° 0 mm 4 mps 717 mmHg 70%
05:00 +2°C° 0 mm 5 mps 717 mmHg 70%
06:00 +2°C° 0 mm 6 mps 716 mmHg 70%
07:00 +3°C° 0 mm 7 mps 716 mmHg 69%
08:00 +3°C° 0.2 mm 7 mps 717 mmHg 73%
09:00 +4°C° 0.2 mm 7 mps 717 mmHg 77%
10:00 +5°C° 0.2 mm 8 mps 717 mmHg 80%
11:00 +4°C° 0.5 mm 7 mps 718 mmHg 77%
12:00 +4°C° 0.5 mm 6 mps 718 mmHg 74%
13:00 +4°C° 0.5 mm 6 mps 718 mmHg 71%
14:00 +5°C° 0 mm 5 mps 718 mmHg 75%
15:00 +5°C° 0 mm 5 mps 717 mmHg 78%
16:00 +5°C° 0 mm 5 mps 717 mmHg 81%
17:00 +5°C° 0 mm 4 mps 716 mmHg 84%
18:00 +4°C° 0 mm 4 mps 716 mmHg 87%
19:00 +4°C° 0 mm 4 mps 715 mmHg 91%
20:00 +4°C° 0.4 mm 6 mps 715 mmHg 88%
21:00 +5°C° 0.4 mm 7 mps 714 mmHg 85%
22:00 +5°C° 0.4 mm 9 mps 713 mmHg 82%
23:00 +6°C° 0.2 mm 9 mps 713 mmHg 80%

Day after tomorrow, 22 January, Friday

Time Temperature Precipitation Wind Pressure Humidity
00:00 +6°C° 0.2 mm 9 mps 713 mmHg 78%
01:00 +6°C° 0.2 mm 9 mps 712 mmHg 76%
02:00 +6°C° 0.2 mm 9 mps 712 mmHg 77%
03:00 +6°C° 0.2 mm 9 mps 712 mmHg 78%
04:00 +5°C° 0.2 mm 9 mps 712 mmHg 78%
05:00 +4°C° 0.4 mm 8 mps 712 mmHg 79%
06:00 +3°C° 0.4 mm 6 mps 713 mmHg 81%
07:00 +3°C° 0.4 mm 4 mps 714 mmHg 82%
08:00 +3°C° 0 mm 3 mps 714 mmHg 81%
09:00 +3°C° 0 mm 3 mps 714 mmHg 81%
10:00 +4°C° 0 mm 2 mps 714 mmHg 80%
11:00 +4°C° 0.1 mm 2 mps 714 mmHg 78%
12:00 +5°C° 0.1 mm 2 mps 714 mmHg 77%
13:00 +5°C° 0.1 mm 2 mps 714 mmHg 75%
14:00 +5°C° 0.3 mm 2 mps 714 mmHg 76%
15:00 +3°C° 0.3 mm 3 mps 715 mmHg 78%
16:00 +3°C° 0.3 mm 3 mps 715 mmHg 79%
17:00 +2°C° 0 mm 3 mps 715 mmHg 83%
18:00 +1°C° 0 mm 3 mps 715 mmHg 87%
19:00 +1°C° 0 mm 2 mps 716 mmHg 91%
20:00 +1°C° 0 mm 2 mps 716 mmHg 92%
21:00 +1°C° 0 mm 2 mps 716 mmHg 92%
22:00 +1°C° 0 mm 2 mps 716 mmHg 93%
23:00 +1°C° 0 mm 2 mps 716 mmHg 92%

23 January, Saturday

Time Temperature Precipitation Wind Pressure Humidity
00:00 +1°C° 0 mm 2 mps 716 mmHg 92%
01:00 +1°C° 0 mm 2 mps 716 mmHg 92%
02:00 +1°C° 0 mm 2 mps 716 mmHg 92%
03:00 +1°C° 0 mm 2 mps 715 mmHg 92%
04:00 0°C° 0 mm 3 mps 715 mmHg 92%
05:00 0°C° 0 mm 3 mps 715 mmHg 91%
06:00 0°C° 0 mm 3 mps 715 mmHg 90%
07:00 0°C° 0 mm 3 mps 715 mmHg 90%
08:00 0°C° 0 mm 3 mps 715 mmHg 89%
09:00 +1°C° 0 mm 3 mps 715 mmHg 89%
10:00 +1°C° 0 mm 3 mps 715 mmHg 89%
11:00 0°C° 0 mm 4 mps 715 mmHg 85%
12:00 +1°C° 0 mm 4 mps 715 mmHg 80%
13:00 +3°C° 0 mm 4 mps 715 mmHg 76%
14:00 +1°C° 0.1 mm 4 mps 715 mmHg 79%
15:00 +1°C° 0.1 mm 4 mps 715 mmHg 82%
16:00 +2°C° 0.1 mm 3 mps 715 mmHg 84%
17:00 +1°C° 0.1 mm 3 mps 716 mmHg 85%
18:00 +1°C° 0.1 mm 3 mps 716 mmHg 86%
19:00 +1°C° 0.1 mm 3 mps 717 mmHg 87%
20:00 +1°C° 0 mm 2 mps 717 mmHg 87%
21:00 -1°C° 0 mm 2 mps 718 mmHg 87%
22:00 -2°C° 0 mm 2 mps 718 mmHg 87%
23:00 -2°C° 0 mm 2 mps 718 mmHg 87%

24 January, Sunday

Time Temperature Precipitation Wind Pressure Humidity
00:00 -2°C° 0 mm 2 mps 718 mmHg 87%
01:00 -2°C° 0 mm 2 mps 719 mmHg 87%
02:00 -2°C° 0 mm 2 mps 718 mmHg 88%
03:00 -2°C° 0 mm 2 mps 718 mmHg 90%
04:00 -3°C° 0 mm 2 mps 718 mmHg 91%
05:00 0°C° 0 mm 1 mps 718 mmHg 92%
06:00 0°C° 0 mm 1 mps 718 mmHg 92%
07:00 0°C° 0 mm 1 mps 718 mmHg 93%
08:00 -2°C° 0.8 mm 2 mps 718 mmHg 93%
09:00 -1°C° 0.8 mm 2 mps 719 mmHg 93%
10:00 -1°C° 0.8 mm 3 mps 719 mmHg 93%
11:00 0°C° 0.1 mm 3 mps 719 mmHg 87%
12:00 0°C° 0.1 mm 3 mps 718 mmHg 82%
13:00 +1°C° 0.1 mm 3 mps 718 mmHg 76%
14:00 +1°C° 0 mm 3 mps 718 mmHg 78%
15:00 +1°C° 0 mm 3 mps 717 mmHg 79%
16:00 +1°C° 0 mm 2 mps 717 mmHg 81%
17:00 0°C° 0.7 mm 3 mps 717 mmHg 85%
18:00 -1°C° 0.7 mm 3 mps 717 mmHg 89%
19:00 -2°C° 0.7 mm 4 mps 717 mmHg 93%
20:00 -3°C° 0.2 mm 4 mps 718 mmHg 92%
21:00 -2°C° 0.2 mm 3 mps 718 mmHg 91%
22:00 -4°C° 0.2 mm 3 mps 718 mmHg 90%
23:00 -2°C° 0.1 mm 3 mps 719 mmHg 91%

25 January, Monday

Time Temperature Precipitation Wind Pressure Humidity
00:00 -2°C° 0.1 mm 3 mps 719 mmHg 92%
01:00 -2°C° 0.1 mm 3 mps 719 mmHg 94%
02:00 -4°C° 0 mm 3 mps 719 mmHg 93%
03:00 -4°C° 0 mm 3 mps 719 mmHg 92%
04:00 -4°C° 0 mm 3 mps 719 mmHg 91%
05:00 -4°C° 0 mm 3 mps 719 mmHg 92%
06:00 -3°C° 0 mm 2 mps 719 mmHg 93%
07:00 -4°C° 0 mm 2 mps 719 mmHg 94%
08:00 -3°C° 0.1 mm 2 mps 720 mmHg 94%
09:00 -2°C° 0.1 mm 2 mps 720 mmHg 94%
10:00 -2°C° 0.1 mm 2 mps 721 mmHg 94%
11:00 -1°C° 0.1 mm 2 mps 721 mmHg 94%
12:00 -1°C° 0.1 mm 3 mps 721 mmHg 93%
13:00 -1°C° 0.1 mm 4 mps 722 mmHg 93%
14:00 -1°C° 0 mm 4 mps 722 mmHg 91%
15:00 -1°C° 0 mm 4 mps 722 mmHg 90%
16:00 -1°C° 0 mm 4 mps 723 mmHg 89%
17:00 -1°C° 0 mm 4 mps 723 mmHg 89%
18:00 -2°C° 0 mm 4 mps 724 mmHg 89%
19:00 -2°C° 0 mm 4 mps 724 mmHg 89%
20:00 -2°C° 0 mm 4 mps 725 mmHg 89%
21:00 -3°C° 0 mm 4 mps 725 mmHg 89%
22:00 -3°C° 0 mm 4 mps 726 mmHg 89%
23:00 -3°C° 0 mm 4 mps 726 mmHg 89%
Show more